[[{"header":{"parameterUnit":"m.s-1","parameterCategory":1,"la1":30.2991,"la2":30.254,"lo1":-89.0895,"lo2":-89.0444,"dy":0.0017,"dx":0.0017,"nx":28,"ny":28,"refTime":"2024-02-28T09:00:00:Z","depth":0,"parameterNumber":2,"parameterNumberName":"U-component_of_WINDS"},"data":[0,0,0,0,0,0,0,0,0,0,0,0,0,0,0,0,0,0,0,0,0,0,0,0,0,0,0,0,0,0,0,0,0,0,0,0,0,0,0,0,0,0,0,0,0,0,0,0,0,0,0,0,0,0,0,0,0,0,0.6554,0.6554,0,0.6532,0.6532,0.6532,0.6519,0.6519,0.6519,0.6519,0.6497,0.6497,0.6496,0,0,0,0,0,0,0,0,0,0,0,0,0,0.6586,0.6586,0.6554,0.6554,0.6554,0.6532,0.6532,0.6532,0.6519,0.6519,0.6519,0.6519,0.6497,0.6497,0.6496,0,0,0,0,0,0,0,0,0,0,0,0,0,0.6569,0.6586,0.6554,0.6545,0.6544,0.6532,0.6532,0.6531,0.6519,0.6519,0.6519,0.6519,0.6498,0.6497,0.6496,0.6493,0,0,0.6494,0.6493,0,0,0,0,0,0,0,0,0.657,0.6568,0.6546,0.6545,0.6544,0.6528,0.6535,0.6518,0.6519,0.6528,0.6519,0.6519,0.6508,0.6506,0.6502,0.6492,0.6491,0.6494,0.6493,0.6493,0.6493,0,0,0,0,0,0,0,0.6571,0.6569,0.6545,0.6546,0.6545,0.6542,0.6539,0.6532,0.6519,0.6528,0.6527,0.6524,0.6507,0.6503,0.6502,0.649,0.6494,0.6493,0.6492,0.6492,0.6476,0.6476,0,0,0,0,0,0,0.6574,0.657,0.6546,0.6545,0.6557,0.6541,0.6539,0.6533,0.6519,0.6516,0.6524,0.6524,0.6504,0.6502,0.6501,0.6496,0.6493,0.6492,0.6492,0.6476,0.6476,0.6476,0,0,0,0,0,0,0.6575,0.6572,0.6547,0.6557,0.6554,0.6541,0.6535,0.6533,0.6529,0.6516,0.6514,0.6522,0.6504,0.6502,0.6495,0.6495,0.6492,0.6491,0.6476,0.6476,0.6476,0.6486,0,0,0,0,0,0,0.6576,0.6572,0.657,0.6557,0.6553,0.6541,0.6535,0.6533,0.6527,0.6526,0.6514,0.6512,0.6504,0.6496,0.6494,0.6494,0.649,0.6476,0.6476,0.6476,0.6485,0.6486,0.6487,0,0,0,0,0,0.6577,0.6574,0.657,0.6568,0.6551,0.6541,0.6539,0.653,0.6527,0.6526,0.6518,0.6512,0.6495,0.6495,0.6493,0.6493,0.6476,0.6476,0.6476,0.6485,0.6486,0.6487,0,0,0,0,0,0,0.6588,0.6572,0.6568,0.6561,0.6552,0.6539,0.6536,0.6531,0.6523,0.6523,0.6512,0.6509,0.6503,0.6497,0.6498,0.6489,0.6485,0.6485,0.6493,0.6493,0.6494,0.6496,0.649,0,0,0,0,0,0.659,0.6583,0.6569,0.6564,0.656,0.6549,0.6545,0.6538,0.6529,0.6526,0.6517,0.6509,0.6502,0.6497,0.649,0.6485,0.6482,0.6483,0.6484,0.6485,0.6484,0.6482,0.6482,0.6477,0.6477,0.6477,0,0,0.6593,0.6583,0.658,0.6566,0.6559,0.6553,0.6546,0.654,0.6535,0.6525,0.6518,0.6511,0.6501,0.6495,0.6492,0.649,0.6485,0.6485,0.6485,0.6485,0.6482,0.6482,0.6483,0.6477,0.6477,0.6477,0,0,0.6596,0.6588,0.6583,0.6576,0.6565,0.6557,0.6556,0.6544,0.6539,0.6531,0.6524,0.6518,0.6506,0.6499,0.6494,0.6495,0.649,0.6493,0.6497,0.6494,0.6495,0.6495,0.6496,0.6496,0.6493,0.6493,0.6493,0,0.6601,0.6591,0.6581,0.6575,0.6569,0.656,0.6555,0.6549,0.6536,0.6533,0.6531,0.6515,0.6508,0.65,0.6501,0.6497,0.6495,0.6494,0.6495,0.6496,0.6496,0.6496,0.6497,0.6493,0.6493,0.6493,0.6493,0,0.6598,0.6591,0.6589,0.6577,0.6571,0.6566,0.6555,0.6551,0.6545,0.6538,0.6531,0.6522,0.6513,0.651,0.6505,0.6502,0.6501,0.6497,0.6494,0.6497,0.6497,0.6497,0.6494,0.6494,0.6494,0.6494,0,0,0.6607,0.659,0.6589,0.6584,0.6571,0.6566,0.656,0.6551,0.6548,0.6539,0.6535,0.6525,0.6521,0.6516,0.6509,0.6507,0.6509,0.6503,0.6503,0.6505,0.6506,0.6509,0.6509,0.6505,0.6505,0.6505,0.6506,0,0.6608,0.6597,0.6588,0.6581,0.6575,0.6566,0.6561,0.6553,0.6547,0.6541,0.6534,0.6527,0.6523,0.6519,0.6517,0.6509,0.6509,0.6509,0.6501,0.6501,0.6504,0.6509,0.6512,0.6514,0.6507,0.6507,0.6507,0,0.6607,0.66,0.6592,0.658,0.6577,0.6573,0.6564,0.6559,0.655,0.6545,0.6539,0.6533,0.6527,0.6524,0.6516,0.6516,0.6512,0.6508,0.6508,0.6507,0.6504,0.6509,0.6514,0.6515,0.6507,0.6507,0.6507,0,0.6615,0.6602,0.6596,0.6592,0.6578,0.6575,0.657,0.6561,0.6556,0.6548,0.6545,0.6537,0.6533,0.6527,0.6519,0.6517,0.6512,0.6508,0.6509,0.6509,0.6508,0.6508,0.6513,0.6505,0.6505,0.6505,0.6505,0,0.6617,0.6613,0.6599,0.6595,0.659,0.6581,0.6576,0.657,0.6562,0.6557,0.6549,0.6544,0.6534,0.6528,0.6522,0.6516,0.6514,0.6511,0.6509,0.6512,0.6512,0.6509,0.6509,0.6505,0.6505,0.6505,0.6505,0,0.6624,0.6615,0.6608,0.6596,0.6593,0.659,0.6579,0.6576,0.6569,0.6563,0.6561,0.655,0.6543,0.6534,0.6525,0.652,0.6516,0.6513,0.6519,0.6518,0.6519,0.6519,0.6523,0.6523,0.6515,0.6515,0.6515,0,0.6626,0.6623,0.661,0.6606,0.6601,0.6595,0.659,0.658,0.6576,0.6566,0.6563,0.6556,0.6549,0.6539,0.653,0.6523,0.652,0.6522,0.6519,0.6522,0.6521,0.6521,0.6521,0.6523,0.6523,0.6523,0.6523,0,0.6631,0.6627,0.662,0.6612,0.6606,0.6599,0.6592,0.659,0.6579,0.6574,0.6567,0.6562,0.6552,0.6545,0.6537,0.6531,0.6526,0.6524,0.6524,0.6527,0.653,0.6529,0.6521,0.6524,0.6524,0.6524,0.6524,0.6524,0.6636,0.6632,0.6623,0.6616,0.661,0.6603,0.6599,0.6592,0.6586,0.6577,0.6572,0.6565,0.6557,0.6545,0.654,0.6535,0.6533,0.6532,0.6532,0.6532,0.6533,0.6531,0.6533,0.6533,0.6533,0.6533,0.6533,0,0.664,0.6634,0.6628,0.6618,0.6612,0.6608,0.66,0.6595,0.6589,0.6582,0.6576,0.6568,0.6561,0.6552,0.6545,0.6543,0.654,0.6541,0.6541,0.654,0.6535,0.6536,0.6543,0.6543,0.6543,0.6543,0.6543,0.6543,0.6642,0.6636,0.6631,0.6622,0.6616,0.6609,0.6605,0.6599,0.6593,0.6585,0.6579,0.6573,0.6565,0.6558,0.6551,0.6549,0.6547,0.6549,0.6546,0.6541,0.654,0.654,0.654,0.6548,0.6548,0.6551,0.6551,0.6551]},{"header":{"parameterUnit":"m.s-1","parameterCategory":1,"la1":30.2991,"la2":30.254,"lo1":-89.0895,"lo2":-89.0444,"dy":0.0017,"dx":0.0017,"nx":28,"ny":28,"refTime":"2024-02-28T09:00:00:Z","depth":0,"parameterNumber":3,"parameterNumberName":"V-component_of_WINDS"},"data":[0,0,0,0,0,0,0,0,0,0,0,0,0,0,0,0,0,0,0,0,0,0,0,0,0,0,0,0,0,0,0,0,0,0,0,0,0,0,0,0,0,0,0,0,0,0,0,0,0,0,0,0,0,0,0,0,0,0,3.788,3.788,0,3.7888,3.7888,3.7888,3.7886,3.7886,3.7885,3.7885,3.7892,3.7892,3.7892,0,0,0,0,0,0,0,0,0,0,0,0,0,3.7862,3.7863,3.788,3.788,3.788,3.7888,3.7888,3.7888,3.7886,3.7886,3.7885,3.7885,3.7892,3.7892,3.7892,0,0,0,0,0,0,0,0,0,0,0,0,0,3.787,3.7863,3.788,3.788,3.788,3.7888,3.7888,3.7888,3.7886,3.7886,3.7885,3.7885,3.7891,3.7892,3.7892,3.79,0,0,3.7894,3.7894,0,0,0,0,0,0,0,0,3.787,3.7871,3.788,3.788,3.788,3.7886,3.7884,3.7892,3.7886,3.7884,3.7885,3.7885,3.789,3.789,3.7892,3.7901,3.7901,3.7894,3.7894,3.7894,3.7895,0,0,0,0,0,0,0,3.7869,3.787,3.7883,3.788,3.788,3.788,3.788,3.7886,3.7888,3.7884,3.7884,3.7885,3.789,3.7892,3.7892,3.7901,3.7894,3.7894,3.7895,3.7895,3.7918,3.7919,0,0,0,0,0,0,3.7869,3.787,3.7883,3.7883,3.7874,3.788,3.7881,3.7884,3.7888,3.7888,3.7885,3.7885,3.7891,3.7892,3.7893,3.7904,3.7894,3.7895,3.7895,3.7918,3.7919,3.7919,0,0,0,0,0,0,3.7868,3.787,3.7883,3.7877,3.7878,3.7881,3.7884,3.7884,3.7887,3.7889,3.7889,3.7887,3.7891,3.7892,3.7899,3.7904,3.7895,3.7896,3.7918,3.7918,3.7919,3.7925,0,0,0,0,0,0,3.7868,3.787,3.7873,3.7877,3.7879,3.7889,3.7884,3.7885,3.7888,3.7887,3.7891,3.7891,3.7891,3.7898,3.79,3.7904,3.7896,3.7917,3.7918,3.7919,3.7924,3.7926,3.7927,0,0,0,0,0,3.7867,3.7873,3.7873,3.7874,3.7883,3.7889,3.789,3.7891,3.7888,3.7891,3.7893,3.7891,3.7903,3.7899,3.79,3.7905,3.7917,3.7918,3.7919,3.7924,3.7925,3.7927,0,0,0,0,0,0,3.7869,3.7874,3.7873,3.7881,3.7885,3.7889,3.7893,3.7892,3.7896,3.7896,3.7896,3.7896,3.7904,3.7905,3.7901,3.7914,3.791,3.7911,3.7913,3.7915,3.7916,3.7915,3.7896,0,0,0,0,0,3.787,3.7875,3.7879,3.7886,3.7888,3.789,3.7893,3.7893,3.7897,3.7898,3.79,3.7904,3.7909,3.7912,3.7916,3.7925,3.7926,3.7929,3.793,3.7931,3.7932,3.7938,3.794,3.7921,3.7921,3.7921,0,0,3.7872,3.7876,3.7879,3.7886,3.7889,3.7895,3.7891,3.7897,3.7901,3.7899,3.7906,3.7908,3.7912,3.792,3.7924,3.7922,3.7937,3.7932,3.7933,3.7933,3.7939,3.7941,3.7942,3.7922,3.7922,3.7922,0,0,3.788,3.7883,3.789,3.7893,3.7898,3.79,3.7902,3.7906,3.7908,3.7915,3.7914,3.7919,3.7927,3.7931,3.7933,3.7945,3.7943,3.7946,3.7952,3.7958,3.796,3.7961,3.7966,3.7968,3.7947,3.7947,3.7947,0,3.7882,3.7891,3.7893,3.7899,3.7903,3.7902,3.7909,3.7913,3.7918,3.7921,3.7919,3.793,3.7932,3.7942,3.7945,3.7947,3.795,3.7945,3.7959,3.7961,3.7962,3.7967,3.7969,3.7947,3.7947,3.7947,3.7947,0,3.7894,3.7901,3.7905,3.7913,3.7917,3.7923,3.7926,3.793,3.7931,3.7933,3.7941,3.7945,3.7951,3.7953,3.7952,3.7963,3.7962,3.7959,3.7955,3.7964,3.7969,3.797,3.7948,3.7948,3.7948,3.7947,0,0,3.7902,3.7912,3.7913,3.7917,3.7924,3.7929,3.7936,3.7943,3.7947,3.7951,3.7958,3.7966,3.7964,3.7967,3.7968,3.7973,3.7983,3.797,3.797,3.7973,3.7997,3.7999,3.8001,3.7983,3.7983,3.7983,3.7997,0,3.791,3.7924,3.7926,3.7938,3.7944,3.7945,3.7952,3.7956,3.7959,3.7965,3.7968,3.7974,3.7971,3.7973,3.7978,3.7981,3.7988,3.798,3.7989,3.7989,3.7988,3.8003,3.8005,3.8018,3.7998,3.7999,3.7999,0,3.7922,3.7929,3.7941,3.7949,3.7952,3.7958,3.7965,3.7971,3.7977,3.7979,3.7983,3.7984,3.7992,3.7987,3.7998,3.7993,3.7997,3.7999,3.7999,3.8,3.7995,3.8005,3.8022,3.8024,3.8002,3.8001,3.8001,0,3.7927,3.7939,3.7949,3.7952,3.7961,3.7966,3.7969,3.7975,3.798,3.7986,3.799,3.7997,3.8,3.8006,3.8008,3.8004,3.802,3.8015,3.8022,3.8022,3.8025,3.8025,3.8043,3.8027,3.8027,3.8027,3.8027,0,3.7937,3.7945,3.7952,3.7958,3.7967,3.797,3.7979,3.7983,3.7989,3.7996,3.7996,3.8003,3.8005,3.8012,3.8014,3.8024,3.8025,3.8027,3.8028,3.8028,3.8028,3.803,3.803,3.8027,3.8027,3.8027,3.8027,0,3.7944,3.7949,3.796,3.7968,3.7971,3.7977,3.7984,3.799,3.7994,3.8003,3.8005,3.801,3.8019,3.8022,3.8032,3.8033,3.8045,3.8044,3.8043,3.8043,3.8051,3.805,3.8071,3.8075,3.8056,3.8056,3.8056,0,3.795,3.7957,3.7967,3.7972,3.7976,3.7984,3.799,3.7994,3.7999,3.8008,3.8013,3.8022,3.8029,3.8043,3.8047,3.8055,3.8055,3.8062,3.8056,3.8056,3.8056,3.8056,3.8057,3.8063,3.8063,3.8063,3.8063,0,3.7961,3.7963,3.7971,3.7981,3.7988,3.7995,3.8002,3.8006,3.8011,3.8018,3.8027,3.8033,3.8044,3.8053,3.8062,3.8066,3.8066,3.8066,3.8068,3.8068,3.8067,3.8069,3.8047,3.8065,3.8065,3.8065,3.8065,3.8064,3.7968,3.7974,3.7983,3.7992,3.7999,3.8006,3.8013,3.8018,3.8026,3.8036,3.8038,3.8049,3.8056,3.8068,3.8073,3.8081,3.8079,3.8082,3.8083,3.8083,3.8085,3.8066,3.8082,3.8082,3.8082,3.8082,3.8082,0,3.7979,3.7985,3.7994,3.8005,3.8013,3.8014,3.8022,3.8028,3.8038,3.8045,3.8053,3.8065,3.8074,3.808,3.809,3.8096,3.8096,3.8098,3.8098,3.8099,3.8085,3.8083,3.8098,3.8098,3.8098,3.8098,3.8098,3.8098,3.7986,3.7997,3.8002,3.8017,3.8023,3.8034,3.8039,3.8046,3.8052,3.8066,3.8074,3.8078,3.8086,3.8096,3.8105,3.8107,3.811,3.8113,3.8114,3.8101,3.81,3.8098,3.8096,3.8113,3.8113,3.8127,3.8128,3.8128]}]]